• en France
  • Liste des pays
  • À 7 jours
  • Température de l'eau
  • Carte satellitaire
  • Carte météo
  • Widgets météo
  • user-avatar
    Se connecter

    Météo par heure à Reykjavík

    Ce jour, 18 Décembre, Lundi

    Heure Température Précipitation Vent Pression Humidité
    00:00 +1°C° 0,2 mm 11 m/s 745 mmHg 94%
    01:00 +1°C° 0,2 mm 10 m/s 744 mmHg 95%
    02:00 +2°C° 0,2 mm 9 m/s 744 mmHg 96%
    03:00 +2°C° 0,1 mm 8 m/s 744 mmHg 96%
    04:00 +3°C° 0,1 mm 7 m/s 744 mmHg 97%
    05:00 +4°C° 0,1 mm 7 m/s 744 mmHg 98%
    06:00 +3°C° 0,3 mm 6 m/s 744 mmHg 97%
    07:00 +3°C° 0,3 mm 6 m/s 744 mmHg 97%
    08:00 +3°C° 0,3 mm 6 m/s 745 mmHg 97%
    09:00 +3°C° 1,1 mm 7 m/s 744 mmHg 97%
    10:00 +3°C° 1,1 mm 7 m/s 744 mmHg 97%
    11:00 +3°C° 1,1 mm 7 m/s 744 mmHg 97%
    12:00 +3°C° 1,3 mm 7 m/s 744 mmHg 97%
    13:00 +3°C° 1,3 mm 6 m/s 743 mmHg 98%
    14:00 +3°C° 1,3 mm 6 m/s 742 mmHg 98%
    15:00 +2°C° 2,1 mm 5 m/s 741 mmHg 98%
    16:00 +3°C° 2,1 mm 4 m/s 740 mmHg 98%
    17:00 +3°C° 2,1 mm 3 m/s 740 mmHg 98%
    18:00 +3°C° 1,2 mm 4 m/s 740 mmHg 98%
    19:00 +2°C° 1,2 mm 5 m/s 739 mmHg 98%
    20:00 +2°C° 1,2 mm 6 m/s 739 mmHg 98%
    21:00 +2°C° 0,5 mm 7 m/s 740 mmHg 93%
    22:00 +1°C° 0,5 mm 8 m/s 741 mmHg 89%
    23:00 +1°C° 0,5 mm 9 m/s 742 mmHg 84%

    Demain, 19 Décembre, Mardi

    Heure Température Précipitation Vent Pression Humidité
    00:00 +1°C° 0,2 mm 10 m/s 743 mmHg 80%
    01:00 -1°C° 0,2 mm 11 m/s 743 mmHg 75%
    02:00 -1°C° 0,2 mm 11 m/s 744 mmHg 71%
    03:00 -1°C° 0,3 mm 11 m/s 744 mmHg 71%
    04:00 -1°C° 0,3 mm 11 m/s 744 mmHg 72%
    05:00 -1°C° 0,3 mm 11 m/s 745 mmHg 72%
    06:00 -1°C° 0,3 mm 11 m/s 745 mmHg 72%
    07:00 -1°C° 0,3 mm 11 m/s 746 mmHg 73%
    08:00 -1°C° 0,3 mm 11 m/s 747 mmHg 73%
    09:00 0°C° 0,2 mm 10 m/s 747 mmHg 74%
    10:00 0°C° 0,2 mm 10 m/s 748 mmHg 74%
    11:00 0°C° 0,2 mm 10 m/s 748 mmHg 75%
    12:00 0°C° 0,3 mm 10 m/s 749 mmHg 74%
    13:00 0°C° 0,3 mm 9 m/s 749 mmHg 74%
    14:00 0°C° 0,3 mm 9 m/s 749 mmHg 74%
    15:00 -1°C° 0,1 mm 9 m/s 749 mmHg 74%
    16:00 -1°C° 0,1 mm 9 m/s 750 mmHg 74%
    17:00 -1°C° 0,1 mm 8 m/s 750 mmHg 74%
    18:00 -1°C° 0,3 mm 9 m/s 750 mmHg 74%
    19:00 -2°C° 0,3 mm 10 m/s 750 mmHg 73%
    20:00 0°C° 0,3 mm 10 m/s 750 mmHg 73%
    21:00 0°C° 0,3 mm 10 m/s 750 mmHg 74%
    22:00 0°C° 0,3 mm 10 m/s 750 mmHg 76%
    23:00 -2°C° 0,3 mm 10 m/s 750 mmHg 78%

    Après-demain, 20 Décembre, Mercredi

    Heure Température Précipitation Vent Pression Humidité
    00:00 0°C° 0,6 mm 10 m/s 749 mmHg 78%
    01:00 0°C° 0,6 mm 10 m/s 749 mmHg 78%
    02:00 0°C° 0,6 mm 10 m/s 748 mmHg 79%
    03:00 0°C° 0,3 mm 10 m/s 748 mmHg 77%
    04:00 -2°C° 0,3 mm 10 m/s 748 mmHg 75%
    05:00 -2°C° 0,3 mm 11 m/s 748 mmHg 73%
    06:00 -3°C° 0,2 mm 10 m/s 748 mmHg 74%
    07:00 -3°C° 0,2 mm 9 m/s 749 mmHg 74%
    08:00 -4°C° 0,2 mm 8 m/s 750 mmHg 75%
    09:00 -4°C° 0,4 mm 9 m/s 750 mmHg 75%
    10:00 -3°C° 0,4 mm 9 m/s 751 mmHg 75%
    11:00 -3°C° 0,4 mm 10 m/s 751 mmHg 75%
    12:00 -4°C° 0,3 mm 11 m/s 751 mmHg 74%
    13:00 -5°C° 0,3 mm 12 m/s 752 mmHg 74%
    14:00 -5°C° 0,3 mm 13 m/s 752 mmHg 73%
    15:00 -5°C° 0,3 mm 13 m/s 753 mmHg 72%
    16:00 -5°C° 0,3 mm 14 m/s 753 mmHg 71%
    17:00 -4°C° 0,3 mm 14 m/s 753 mmHg 70%
    18:00 -4°C° 0,2 mm 14 m/s 754 mmHg 72%
    19:00 -4°C° 0,2 mm 14 m/s 754 mmHg 73%
    20:00 -4°C° 0,2 mm 13 m/s 755 mmHg 75%
    21:00 -4°C° 0,4 mm 13 m/s 755 mmHg 76%
    22:00 -4°C° 0,4 mm 13 m/s 755 mmHg 76%
    23:00 -4°C° 0,4 mm 13 m/s 756 mmHg 77%

    21 Décembre, Jeudi

    Heure Température Précipitation Vent Pression Humidité
    00:00 -4°C° 0,4 mm 13 m/s 756 mmHg 75%
    01:00 -4°C° 0,4 mm 13 m/s 757 mmHg 74%
    02:00 -4°C° 0,4 mm 13 m/s 757 mmHg 73%
    03:00 -2°C° 0,3 mm 13 m/s 757 mmHg 73%
    04:00 -2°C° 0,3 mm 13 m/s 758 mmHg 73%
    05:00 -2°C° 0,3 mm 13 m/s 758 mmHg 73%
    06:00 -2°C° 0,3 mm 13 m/s 758 mmHg 73%
    07:00 -2°C° 0,3 mm 13 m/s 759 mmHg 74%
    08:00 -2°C° 0,3 mm 12 m/s 760 mmHg 74%
    09:00 -3°C° 0,1 mm 11 m/s 760 mmHg 74%
    10:00 -3°C° 0,1 mm 10 m/s 761 mmHg 74%
    11:00 -3°C° 0,1 mm 9 m/s 762 mmHg 73%
    12:00 -2°C° 0 mm 8 m/s 762 mmHg 75%
    13:00 -1°C° 0 mm 8 m/s 763 mmHg 76%
    14:00 -1°C° 0 mm 7 m/s 763 mmHg 77%
    15:00 -1°C° 0 mm 6 m/s 763 mmHg 79%
    16:00 0°C° 0 mm 5 m/s 763 mmHg 81%
    17:00 0°C° 0 mm 4 m/s 764 mmHg 83%
    18:00 0°C° 0,1 mm 4 m/s 763 mmHg 86%
    19:00 +1°C° 0,1 mm 3 m/s 763 mmHg 88%
    20:00 +1°C° 0,1 mm 3 m/s 763 mmHg 91%
    21:00 +1°C° 0,1 mm 3 m/s 763 mmHg 92%
    22:00 +1°C° 0,1 mm 3 m/s 763 mmHg 93%
    23:00 0°C° 0,1 mm 4 m/s 763 mmHg 94%

    22 Décembre, Vendredi

    Heure Température Précipitation Vent Pression Humidité
    00:00 0°C° 0,4 mm 4 m/s 763 mmHg 95%
    01:00 +2°C° 0,4 mm 3 m/s 763 mmHg 95%
    02:00 +2°C° 0,4 mm 3 m/s 763 mmHg 95%
    03:00 +2°C° 0,5 mm 3 m/s 763 mmHg 96%
    04:00 +1°C° 0,5 mm 4 m/s 763 mmHg 97%
    05:00 +3°C° 0,5 mm 4 m/s 763 mmHg 98%
    06:00 +3°C° 0,9 mm 4 m/s 762 mmHg 98%
    07:00 +2°C° 0,9 mm 5 m/s 762 mmHg 99%
    08:00 +3°C° 0,9 mm 6 m/s 762 mmHg 99%
    09:00 +3°C° 2,3 mm 6 m/s 761 mmHg 99%
    10:00 +3°C° 2,3 mm 6 m/s 761 mmHg 99%
    11:00 +4°C° 2,3 mm 7 m/s 761 mmHg 99%
    12:00 +4°C° 3,9 mm 6 m/s 760 mmHg 99%
    13:00 +4°C° 3,9 mm 6 m/s 760 mmHg 99%
    14:00 +4°C° 3,9 mm 6 m/s 760 mmHg 99%
    15:00 +5°C° 2,9 mm 5 m/s 760 mmHg 99%
    16:00 +5°C° 2,9 mm 4 m/s 760 mmHg 99%
    17:00 +5°C° 2,9 mm 4 m/s 761 mmHg 99%
    18:00 +4°C° 0,1 mm 3 m/s 761 mmHg 99%
    19:00 +3°C° 0,1 mm 3 m/s 761 mmHg 98%
    20:00 +4°C° 0,1 mm 2 m/s 761 mmHg 98%
    21:00 +4°C° 0 mm 2 m/s 761 mmHg 97%
    22:00 +3°C° 0 mm 2 m/s 760 mmHg 97%
    23:00 +3°C° 0 mm 2 m/s 760 mmHg 96%

    23 Décembre, Samedi

    Heure Température Précipitation Vent Pression Humidité
    00:00 +3°C° 0 mm 2 m/s 758 mmHg 95%
    01:00 +3°C° 0 mm 2 m/s 757 mmHg 95%
    02:00 +3°C° 0 mm 2 m/s 756 mmHg 94%
    03:00 +3°C° 0,6 mm 2 m/s 754 mmHg 94%
    04:00 +2°C° 0,6 mm 3 m/s 753 mmHg 94%
    05:00 +2°C° 0,6 mm 3 m/s 751 mmHg 94%
    06:00 +1°C° 1 mm 4 m/s 749 mmHg 93%
    07:00 +1°C° 1 mm 5 m/s 748 mmHg 93%
    08:00 +1°C° 1 mm 6 m/s 746 mmHg 93%
    09:00 +1°C° 0,3 mm 6 m/s 746 mmHg 94%
    10:00 +2°C° 0,3 mm 6 m/s 745 mmHg 96%
    11:00 +2°C° 0,3 mm 6 m/s 744 mmHg 97%
    12:00 +2°C° 0,1 mm 6 m/s 744 mmHg 96%
    13:00 +1°C° 0,1 mm 6 m/s 744 mmHg 95%
    14:00 +1°C° 0,1 mm 5 m/s 744 mmHg 94%
    15:00 0°C° 0,6 mm 7 m/s 744 mmHg 92%
    16:00 0°C° 0,6 mm 8 m/s 744 mmHg 89%
    17:00 0°C° 0,6 mm 9 m/s 744 mmHg 86%
    18:00 0°C° 0,5 mm 10 m/s 744 mmHg 82%
    19:00 -2°C° 0,5 mm 10 m/s 744 mmHg 77%
    20:00 -2°C° 0,5 mm 11 m/s 743 mmHg 73%
    21:00 -2°C° 0,2 mm 10 m/s 743 mmHg 74%
    22:00 -2°C° 0,2 mm 10 m/s 743 mmHg 75%
    23:00 -1°C° 0,2 mm 9 m/s 742 mmHg 76%
    Voir plus